QPF
0.00 0.00 0.00 0.01 0.00 0.00 0.00 0.00 0.00 0.00 0.00 0.00 0.00 0.00 0.00 0.00 0.01 0.00 0.00 0.00 0.00 0.00 0.00 0.00 0.00 0.00 0.00 0.00 0.00 0.00 0.00 0.00 0.00 0.00 0.00 0.00 0.00 0.00 0.01 0.01 0.01 0.01 0.01 0.01
0.00 0.00 0.00 0.01 0.00 0.00 0.00 0.00 0.00 0.00 0.00 0.00 0.00 0.00 0.00 0.00 0.01 0.01 0.01 0.00 0.00 0.00 0.00 0.00 0.00 0.00 0.00 0.00 0.00 0.00 0.00 0.00 0.00 0.00 0.00 0.00 0.00 0.00 0.00 0.00 0.01 0.01 0.01 0.01
0.00 0.00 0.00 0.00 0.00 0.00 0.00 0.00 0.00 0.00 0.00 0.00 0.00 0.00 0.00 0.00 0.01 0.01 0.01 0.00 0.01 0.01 0.01 0.00 0.00 0.00 0.00 0.00 0.00 0.00 0.00 0.00 0.00 0.01 0.01 0.01 0.01 0.01 0.00 0.00 0.00 0.00 0.00 0.01
0.00 0.00 0.00 0.00 0.00 0.01 0.00 0.00 0.00 0.00 0.00 0.00 0.00 0.00 0.00 0.00 0.00 0.00 0.00 0.00 0.00 0.00 0.00 0.00 0.00 0.00 0.00 0.00 0.00 0.00 0.00 0.00 0.01 0.01 0.01 0.01 0.01 0.01 0.00 0.00 0.00 0.00 0.00 0.00
0.00 0.00 0.00 0.00 0.00 0.00 0.01 0.00 0.00 0.00 0.00 0.00 0.00 0.00 0.00 0.00 0.00 0.00 0.00 0.00 0.00 0.00 0.00 0.00 0.00 0.01 0.00 0.00 0.00 0.00 0.00 0.00 0.00 0.00 0.00 0.01 0.00 0.00 0.00 0.00 0.00 0.00 0.01 0.00
0.00 0.00 0.00 0.00 0.00 0.00 0.00 0.00 0.00 0.00 0.00 0.00 0.00 0.00 0.00 0.00 0.00 0.00 0.00 0.00 0.00 0.00 0.00 0.00 0.00 0.01 0.00 0.00 0.00 0.00 0.00 0.00 0.00 0.00 0.00 0.00 0.00 0.00 0.00 0.00 0.00 0.00 0.00 0.01
0.00 0.00 0.00 0.00 0.00 0.00 0.00 0.00 0.01 0.01 0.01 0.00 0.00 0.00 0.00 0.00 0.00 0.00 0.00 0.00 0.00 0.00 0.00 0.00 0.00 0.00 0.00 0.01 0.00 0.00 0.00 0.00 0.00 0.00 0.00 0.01 0.01 0.00 0.00 0.00 0.00 0.01 0.00 0.00
0.00 0.00 0.00 0.00 0.00 0.00 0.00 0.00 0.00 0.00 0.00 0.00 0.00 0.00 0.00 0.00 0.00 0.00 0.00 0.00 0.00 0.00 0.00 0.00 0.00 0.00 0.00 0.01 0.01 0.00 0.00 0.00 0.00 0.00 0.00 0.01 0.01 0.01 0.01 0.01 0.01 0.01 0.01 0.01
0.00 0.00 0.00 0.00 0.00 0.00 0.00 0.00 0.00 0.00 0.00 0.00 0.00 0.00 0.00 0.00 0.00 0.00 0.00 0.00 0.00 0.00 0.00 0.00 0.00 0.01 0.01 0.01 0.01 0.01 0.00 0.00 0.01 0.00 0.01 0.01 0.01 0.01 0.01 0.01 0.01 0.01 0.01 0.01
0.00 0.00 0.00 0.00 0.00 0.00 0.00 0.00 0.00 0.00 0.00 0.01 0.00 0.00 0.00 0.00 0.00 0.00 0.00 0.00 0.00 0.00 0.01 0.00 0.00 0.01 0.01 0.01 0.01 0.01 0.01 0.01 0.01 0.01 0.01 0.01 0.01 0.01 0.01 0.01 0.02 0.01 0.01 0.01
0.00 0.00 0.00 0.00 0.00 0.00 0.00 0.00 0.00 0.00 0.00 0.00 0.00 0.00 0.00 0.00 0.00 0.00 0.00 0.00 0.00 0.00 0.00 0.00 0.00 0.01 0.01 0.01 0.01 0.01 0.01 0.01 0.01 0.01 0.01 0.01 0.01 0.01 0.02 0.02 0.02 0.01 0.01 0.01
0.02 0.01 0.00 0.00 0.00 0.00 0.00 0.00 0.00 0.00 0.00 0.00 0.00 0.00 0.00 0.00 0.00 0.00 0.00 0.00 0.00 0.00 0.00 0.00 0.00 0.01 0.01 0.01 0.01 0.01 0.00 0.00 0.01 0.01 0.01 0.01 0.01 0.01 0.02 0.02 0.02 0.02 0.01 0.01
0.01 0.02 0.01 0.00 0.00 0.00 0.00 0.00 0.00 0.00 0.00 0.00 0.00 0.00 0.00 0.00 0.00 0.00 0.00 0.00 0.00 0.00 0.00 0.00 0.00 0.00 0.01 0.00 0.01 0.01 0.01 0.01 0.01 0.01 0.01 0.01 0.01 0.01 0.01 0.02 0.02 0.02 0.02 0.02
0.01 0.01 0.01 0.01 0.00 0.00 0.00 0.00 0.00 0.01 0.00 0.00 0.00 0.00 0.00 0.00 0.00 0.00 0.00 0.00 0.00 0.00 0.00 0.00 0.00 0.01 0.01 0.01 0.01 0.01 0.01 0.01 0.01 0.01 0.01 0.01 0.01 0.00 0.00 0.01 0.01 0.02 0.02 0.02
0.01 0.01 0.00 0.00 0.00 0.00 0.00 0.00 0.00 0.00 0.00 0.00 0.00 0.00 0.00 0.00 0.00 0.00 0.00 0.00 0.00 0.00 0.00 0.00 0.00 0.00 0.00 0.00 0.00 0.01 0.01 0.01 0.01 0.01 0.00 0.00 0.00 0.00 0.00 0.00 0.01 0.01 0.02 0.01
0.01 0.01 0.01 0.00 0.00 0.00 0.00 0.00 0.00 0.00 0.00 0.00 0.00 0.00 0.00 0.00 0.00 0.00 0.00 0.00 0.00 0.00 0.01 0.00 0.00 0.00 0.00 0.00 0.01 0.01 0.01 0.01 0.00 0.00 0.00 0.00 0.00 0.00 0.00 0.00 0.00 0.01 0.01 0.01
0.02 0.01 0.01 0.00 0.00 0.00 0.00 0.00 0.00 0.00 0.00 0.00 0.00 0.00 0.00 0.00 0.00 0.00 0.00 0.00 0.00 0.00 0.01 0.01 0.00 0.01 0.00 0.01 0.01 0.01 0.01 0.01 0.01 0.00 0.00 0.00 0.00 0.00 0.00 0.00 0.01 0.01 0.00 0.00
0.01 0.01 0.01 0.01 0.00 0.00 0.00 0.00 0.00 0.00 0.00 0.00 0.01 0.00 0.00 0.00 0.00 0.00 0.00 0.00 0.00 0.01 0.01 0.01 0.00 0.01 0.01 0.01 0.01 0.01 0.01 0.00 0.01 0.00 0.00 0.00 0.00 0.00 0.00 0.01 0.01 0.01 0.01 0.00
0.00 0.01 0.01 0.01 0.01 0.00 0.00 0.00 0.00 0.00 0.00 0.00 0.00 0.00 0.00 0.00 0.00 0.00 0.00 0.00 0.00 0.00 0.00 0.00 0.00 0.01 0.01 0.01 0.02 0.01 0.01 0.01 0.01 0.01 0.00 0.01 0.01 0.00 0.00 0.00 0.01 0.01 0.01 0.01
0.00 0.01 0.01 0.01 0.01 0.00 0.00 0.00 0.00 0.00 0.00 0.00 0.00 0.00 0.01 0.01 0.01 0.01 0.00 0.00 0.00 0.00 0.00 0.00 0.00 0.01 0.01 0.01 0.01 0.01 0.01 0.01 0.01 0.01 0.01 0.01 0.01 0.00 0.00 0.00 0.01 0.01 0.01 0.01
0.00 0.01 0.01 0.01 0.01 0.00 0.00 0.00 0.00 0.01 0.00 0.00 0.01 0.01 0.01 0.01 0.01 0.01 0.00 0.01 0.01 0.01 0.01 0.00 0.01 0.01 0.01 0.00 0.00 0.00 0.01 0.01 0.01 0.01 0.01 0.01 0.01 0.01 0.01 0.00 0.01 0.01 0.01 0.01
0.01 0.01 0.01 0.01 0.01 0.00 0.00 0.00 0.00 0.00 0.00 0.01 0.01 0.01 0.01 0.01 0.01 0.01 0.01 0.01 0.00 0.00 0.00 0.00 0.01 0.00 0.00 0.00 0.00 0.00 0.01 0.01 0.01 0.01 0.01 0.02 0.02 0.03 0.03 0.01 0.01 0.01 0.01 0.01
0.01 0.01 0.01 0.01 0.01 0.00 0.00 0.00 0.00 0.00 0.00 0.00 0.01 0.01 0.01 0.00 0.00 0.00 0.00 0.00 0.00 0.00 0.00 0.00 0.00 0.00 0.00 0.00 0.00 0.00 0.01 0.01 0.01 0.01 0.01 0.01 0.02 0.02 0.03 0.03 0.02 0.02 0.02 0.02
0.00 0.01 0.01 0.00 0.00 0.00 0.00 0.00 0.00 0.00 0.00 0.00 0.01 0.01 0.01 0.00 0.00 0.00 0.00 0.00 0.00 0.00 0.00 0.00 0.00 0.00 0.00 0.00 0.00 0.01 0.01 0.01 0.01 0.01 0.01 0.02 0.02 0.02 0.03 0.04 0.03 0.02 0.02 0.03
0.00 0.00 0.01 0.00 0.00 0.00 0.00 0.00 0.00 0.00 0.00 0.00 0.01 0.01 0.01 0.01 0.00 0.00 0.00 0.00 0.00 0.00 0.00 0.00 0.00 0.00 0.00 0.00 0.00 0.01 0.01 0.01 0.01 0.01 0.01 0.02 0.02 0.02 0.02 0.03 0.03 0.02 0.02 0.02
0.00 0.00 0.00 0.00 0.00 0.00 0.00 0.00 0.00 0.01 0.01 0.01 0.01 0.01 0.01 0.01 0.00 0.00 0.00 0.00 0.00 0.00 0.00 0.00 0.00 0.00 0.00 0.00 0.00 0.01 0.01 0.01 0.01 0.01 0.01 0.01 0.02 0.03 0.03 0.03 0.03 0.03 0.02 0.02
MSLP
1016.55 1017.25 1017.83 1018.28 1018.60 1018.83 1018.96 1019.02 1019.01 1018.92 1018.75 1018.49 1018.17 1017.80 1017.41 1017.07 1016.79 1016.60 1016.52 1016.51 1016.55 1016.61 1016.64 1016.63 1016.57 1016.48 1016.38 1016.30 1016.27 1016.30 1016.39 1016.52 1016.65 1016.75 1016.80 1016.76 1016.65 1016.47 1016.27 1016.06 1015.90 1015.80 1015.78 1015.86
1017.31 1017.86 1018.29 1018.61 1018.85 1019.04 1019.19 1019.32 1019.41 1019.42 1019.33 1019.12 1018.79 1018.36 1017.88 1017.40 1016.99 1016.69 1016.53 1016.50 1016.56 1016.68 1016.79 1016.86 1016.86 1016.81 1016.71 1016.60 1016.53 1016.52 1016.58 1016.70 1016.85 1017.00 1017.10 1017.13 1017.06 1016.91 1016.69 1016.46 1016.24 1016.08 1016.01 1016.05
1017.90 1018.28 1018.55 1018.75 1018.91 1019.09 1019.30 1019.53 1019.75 1019.89 1019.91 1019.76 1019.43 1018.94 1018.34 1017.72 1017.15 1016.72 1016.47 1016.39 1016.46 1016.62 1016.82 1016.97 1017.06 1017.05 1016.97 1016.86 1016.75 1016.70 1016.72 1016.83 1016.99 1017.18 1017.34 1017.43 1017.43 1017.33 1017.14 1016.90 1016.65 1016.45 1016.33 1016.33
1018.30 1018.51 1018.63 1018.72 1018.84 1019.04 1019.34 1019.72 1020.09 1020.40 1020.54 1020.45 1020.12 1019.56 1018.84 1018.06 1017.33 1016.74 1016.37 1016.22 1016.27 1016.47 1016.74 1016.99 1017.16 1017.21 1017.17 1017.06 1016.94 1016.85 1016.83 1016.91 1017.07 1017.28 1017.48 1017.64 1017.70 1017.67 1017.53 1017.31 1017.08 1016.86 1016.71 1016.67
1018.54 1018.59 1018.58 1018.60 1018.72 1018.99 1019.41 1019.95 1020.51 1020.98 1021.25 1021.24 1020.91 1020.28 1019.43 1018.48 1017.56 1016.80 1016.29 1016.05 1016.06 1016.28 1016.60 1016.93 1017.19 1017.32 1017.33 1017.24 1017.10 1016.97 1016.92 1016.96 1017.09 1017.29 1017.52 1017.72 1017.85 1017.88 1017.81 1017.65 1017.44 1017.24 1017.09 1017.02
1018.68 1018.59 1018.50 1018.49 1018.65 1019.01 1019.59 1020.31 1021.05 1021.69 1022.08 1022.13 1021.80 1021.10 1020.12 1019.00 1017.90 1016.95 1016.28 1015.93 1015.88 1016.09 1016.45 1016.84 1017.17 1017.38 1017.45 1017.39 1017.25 1017.10 1017.00 1016.98 1017.07 1017.25 1017.47 1017.69 1017.87 1017.96 1017.95 1017.85 1017.70 1017.53 1017.40 1017.32
1018.77 1018.60 1018.46 1018.47 1018.69 1019.18 1019.91 1020.80 1021.72 1022.50 1023.00 1023.10 1022.75 1021.98 1020.89 1019.60 1018.32 1017.20 1016.37 1015.89 1015.76 1015.93 1016.29 1016.73 1017.13 1017.40 1017.53 1017.51 1017.38 1017.22 1017.08 1017.01 1017.05 1017.17 1017.37 1017.58 1017.77 1017.91 1017.96 1017.92 1017.83 1017.71 1017.60 1017.54
1018.87 1018.66 1018.53 1018.59 1018.91 1019.52 1020.39 1021.42 1022.46 1023.35 1023.91 1024.04 1023.67 1022.84 1021.64 1020.22 1018.79 1017.51 1016.53 1015.92 1015.70 1015.81 1016.15 1016.61 1017.05 1017.38 1017.57 1017.59 1017.50 1017.33 1017.17 1017.06 1017.04 1017.11 1017.26 1017.45 1017.64 1017.78 1017.87 1017.89 1017.85 1017.78 1017.70 1017.66
1019.01 1018.81 1018.73 1018.86 1019.28 1019.99 1020.96 1022.08 1023.19 1024.12 1024.71 1024.83 1024.43 1023.54 1022.26 1020.76 1019.21 1017.82 1016.72 1016.00 1015.68 1015.72 1016.02 1016.46 1016.92 1017.29 1017.53 1017.61 1017.56 1017.43 1017.27 1017.14 1017.09 1017.11 1017.21 1017.35 1017.51 1017.65 1017.75 1017.80 1017.80 1017.77 1017.73 1017.70
1019.21 1019.07 1019.06 1019.27 1019.76 1020.54 1021.55 1022.69 1023.79 1024.70 1025.25 1025.33 1024.89 1023.96 1022.65 1021.10 1019.51 1018.05 1016.88 1016.08 1015.67 1015.63 1015.87 1016.27 1016.72 1017.12 1017.40 1017.55 1017.56 1017.48 1017.36 1017.25 1017.18 1017.18 1017.24 1017.34 1017.47 1017.58 1017.67 1017.72 1017.74 1017.73 1017.71 1017.71
1019.46 1019.41 1019.48 1019.77 1020.30 1021.08 1022.06 1023.13 1024.15 1024.96 1025.41 1025.42 1024.94 1024.00 1022.70 1021.17 1019.60 1018.15 1016.96 1016.12 1015.65 1015.53 1015.69 1016.04 1016.45 1016.85 1017.16 1017.36 1017.45 1017.45 1017.40 1017.34 1017.31 1017.31 1017.36 1017.43 1017.52 1017.60 1017.67 1017.70 1017.72 1017.72 1017.71 1017.72
1019.75 1019.80 1019.96 1020.29 1020.82 1021.55 1022.43 1023.35 1024.21 1024.85 1025.17 1025.09 1024.57 1023.64 1022.40 1020.95 1019.47 1018.09 1016.94 1016.10 1015.60 1015.41 1015.49 1015.76 1016.11 1016.47 1016.80 1017.04 1017.21 1017.30 1017.35 1017.38 1017.41 1017.46 1017.52 1017.59 1017.65 1017.71 1017.75 1017.76 1017.77 1017.76 1017.76 1017.77
1020.08 1020.22 1020.45 1020.79 1021.28 1021.90 1022.61 1023.33 1023.97 1024.41 1024.56 1024.37 1023.82 1022.94 1021.79 1020.49 1019.15 1017.91 1016.85 1016.05 1015.53 1015.29 1015.28 1015.44 1015.70 1016.01 1016.32 1016.59 1016.82 1017.01 1017.17 1017.31 1017.43 1017.55 1017.66 1017.75 1017.82 1017.86 1017.88 1017.88 1017.87 1017.86 1017.85 1017.87
1020.45 1020.68 1020.94 1021.27 1021.67 1022.14 1022.64 1023.11 1023.49 1023.70 1023.67 1023.38 1022.82 1022.00 1020.99 1019.87 1018.72 1017.65 1016.72 1015.99 1015.48 1015.17 1015.07 1015.11 1015.27 1015.49 1015.74 1016.01 1016.29 1016.56 1016.82 1017.08 1017.31 1017.52 1017.70 1017.84 1017.93 1017.99 1018.01 1018.01 1017.99 1017.99 1017.99 1018.01
1020.88 1021.15 1021.42 1021.70 1021.99 1022.27 1022.54 1022.75 1022.87 1022.84 1022.65 1022.27 1021.71 1020.97 1020.12 1019.20 1018.26 1017.39 1016.60 1015.95 1015.45 1015.10 1014.89 1014.80 1014.82 1014.92 1015.10 1015.34 1015.63 1015.95 1016.30 1016.66 1017.00 1017.31 1017.58 1017.79 1017.93 1018.02 1018.07 1018.09 1018.09 1018.10 1018.13 1018.17
1021.35 1021.65 1021.90 1022.10 1022.25 1022.35 1022.38 1022.34 1022.21 1021.98 1021.63 1021.18 1020.63 1020.00 1019.30 1018.58 1017.85 1017.16 1016.52 1015.95 1015.46 1015.05 1014.73 1014.51 1014.38 1014.35 1014.42 1014.60 1014.87 1015.22 1015.62 1016.06 1016.50 1016.91 1017.26 1017.55 1017.77 1017.92 1018.01 1018.07 1018.12 1018.17 1018.23 1018.31
1021.87 1022.15 1022.35 1022.46 1022.47 1022.38 1022.20 1021.94 1021.60 1021.19 1020.73 1020.23 1019.70 1019.16 1018.61 1018.07 1017.53 1017.00 1016.48 1015.98 1015.49 1015.03 1014.61 1014.25 1013.97 1013.80 1013.75 1013.84 1014.06 1014.40 1014.84 1015.32 1015.83 1016.32 1016.75 1017.12 1017.42 1017.64 1017.81 1017.94 1018.05 1018.16 1018.27 1018.40
1022.39 1022.63 1022.75 1022.75 1022.63 1022.38 1022.02 1021.58 1021.08 1020.54 1020.00 1019.47 1018.97 1018.51 1018.08 1017.68 1017.29 1016.89 1016.46 1016.00 1015.51 1014.99 1014.48 1014.00 1013.59 1013.29 1013.13 1013.12 1013.28 1013.58 1014.01 1014.51 1015.06 1015.60 1016.10 1016.54 1016.91 1017.21 1017.46 1017.67 1017.86 1018.04 1018.22 1018.40
1022.85 1023.01 1023.05 1022.94 1022.69 1022.31 1021.82 1021.25 1020.63 1020.02 1019.43 1018.89 1018.42 1018.02 1017.69 1017.38 1017.09 1016.77 1016.41 1015.98 1015.48 1014.92 1014.33 1013.76 1013.25 1012.84 1012.58 1012.48 1012.57 1012.82 1013.21 1013.71 1014.26 1014.83 1015.37 1015.87 1016.30 1016.68 1017.00 1017.29 1017.56 1017.81 1018.06 1018.31
1023.17 1023.24 1023.17 1022.96 1022.61 1022.13 1021.55 1020.91 1020.24 1019.58 1018.98 1018.45 1018.01 1017.66 1017.38 1017.14 1016.90 1016.63 1016.29 1015.88 1015.37 1014.79 1014.16 1013.53 1012.95 1012.48 1012.14 1011.97 1011.99 1012.18 1012.53 1012.99 1013.52 1014.08 1014.64 1015.17 1015.65 1016.08 1016.47 1016.83 1017.17 1017.49 1017.80 1018.10
1023.31 1023.27 1023.09 1022.78 1022.35 1021.81 1021.19 1020.52 1019.84 1019.19 1018.61 1018.10 1017.69 1017.37 1017.11 1016.89 1016.68 1016.43 1016.10 1015.69 1015.19 1014.61 1013.97 1013.32 1012.72 1012.20 1011.82 1011.60 1011.56 1011.69 1011.97 1012.38 1012.87 1013.40 1013.95 1014.48 1014.98 1015.45 1015.89 1016.30 1016.69 1017.06 1017.42 1017.76
1023.21 1023.05 1022.78 1022.39 1021.90 1021.34 1020.71 1020.06 1019.41 1018.80 1018.26 1017.79 1017.40 1017.10 1016.85 1016.64 1016.42 1016.17 1015.85 1015.45 1014.96 1014.39 1013.78 1013.15 1012.55 1012.03 1011.62 1011.37 1011.27 1011.33 1011.55 1011.88 1012.31 1012.79 1013.30 1013.82 1014.32 1014.81 1015.26 1015.70 1016.13 1016.53 1016.92 1017.29
1022.87 1022.60 1022.24 1021.80 1021.29 1020.72 1020.13 1019.53 1018.94 1018.40 1017.91 1017.49 1017.13 1016.84 1016.60 1016.37 1016.15 1015.89 1015.57 1015.18 1014.71 1014.18 1013.60 1013.01 1012.44 1011.93 1011.52 1011.23 1011.08 1011.07 1011.21 1011.46 1011.81 1012.22 1012.68 1013.16 1013.65 1014.13 1014.59 1015.04 1015.48 1015.89 1016.29 1016.67
1022.32 1021.96 1021.53 1021.06 1020.55 1020.01 1019.48 1018.95 1018.45 1017.98 1017.57 1017.19 1016.87 1016.59 1016.34 1016.11 1015.87 1015.60 1015.28 1014.91 1014.47 1013.98 1013.45 1012.90 1012.36 1011.87 1011.45 1011.12 1010.91 1010.83 1010.88 1011.03 1011.29 1011.64 1012.03 1012.47 1012.93 1013.39 1013.85 1014.30 1014.74 1015.15 1015.54 1015.92
1021.61 1021.18 1020.71 1020.23 1019.74 1019.26 1018.80 1018.36 1017.95 1017.57 1017.22 1016.90 1016.61 1016.34 1016.09 1015.85 1015.59 1015.32 1015.01 1014.65 1014.25 1013.79 1013.30 1012.79 1012.27 1011.78 1011.34 1010.97 1010.69 1010.52 1010.47 1010.53 1010.70 1010.97 1011.31 1011.70 1012.13 1012.59 1013.04 1013.48 1013.91 1014.31 1014.69 1015.06
1020.82 1020.33 1019.85 1019.37 1018.92 1018.50 1018.12 1017.77 1017.44 1017.14 1016.85 1016.58 1016.32 1016.06 1015.81 1015.56 1015.29 1015.01 1014.71 1014.37 1013.99 1013.56 1013.10 1012.61 1012.09 1011.59 1011.11 1010.68 1010.33 1010.07 1009.92 1009.89 1009.98 1010.17 1010.46 1010.83 1011.25 1011.69 1012.15 1012.60 1013.02 1013.42 1013.79 1014.13
Thickness
5747 5734 5724 5728 5732 5730 5725 5718 5714 5721 5733 5727 5720 5721 5728 5731 5729 5726 5724 5723 5723 5725 5728 5728 5727 5726 5724 5722 5719 5718 5716 5714 5713 5711 5709 5707 5705 5705 5705 5705 5704 5703 5702 5701
5730 5725 5736 5739 5736 5731 5724 5716 5714 5722 5731 5727 5718 5718 5727 5730 5729 5730 5728 5726 5725 5724 5725 5725 5725 5723 5722 5719 5718 5716 5714 5713 5712 5711 5709 5707 5705 5703 5703 5703 5702 5701 5701 5700
5723 5731 5742 5736 5729 5724 5721 5716 5716 5716 5722 5723 5717 5712 5720 5728 5731 5732 5732 5730 5728 5726 5724 5723 5723 5722 5720 5718 5716 5716 5714 5712 5711 5710 5707 5705 5703 5701 5700 5700 5699 5699 5699 5698
5725 5735 5736 5730 5726 5724 5714 5727 5724 5719 5708 5699 5707 5689 5711 5719 5723 5728 5730 5729 5728 5728 5727 5724 5723 5721 5720 5718 5717 5715 5713 5711 5709 5708 5706 5703 5699 5696 5697 5697 5697 5697 5697 5697
5721 5731 5729 5725 5728 5728 5723 5729 5722 5716 5706 5697 5699 5691 5701 5715 5717 5725 5730 5732 5731 5730 5728 5726 5724 5723 5721 5719 5716 5714 5712 5710 5708 5706 5704 5702 5698 5697 5696 5696 5695 5695 5695 5695
5723 5734 5734 5731 5734 5732 5728 5719 5711 5700 5693 5682 5693 5687 5692 5707 5717 5726 5732 5734 5733 5731 5729 5727 5725 5723 5720 5717 5715 5713 5710 5708 5707 5705 5703 5700 5698 5696 5694 5693 5693 5693 5693 5693
5711 5721 5731 5735 5724 5723 5718 5698 5679 5677 5670 5675 5692 5689 5696 5721 5728 5730 5732 5734 5734 5732 5728 5724 5721 5719 5717 5715 5713 5711 5709 5706 5705 5703 5701 5699 5697 5696 5694 5693 5692 5691 5691 5691
5692 5695 5718 5726 5721 5713 5709 5700 5676 5667 5665 5672 5687 5685 5706 5729 5733 5736 5737 5736 5733 5730 5727 5725 5722 5719 5717 5714 5712 5710 5707 5705 5703 5701 5700 5698 5696 5695 5694 5693 5692 5691 5691 5691
5687 5692 5717 5725 5726 5719 5704 5694 5696 5678 5674 5669 5677 5691 5712 5730 5731 5732 5733 5732 5730 5728 5726 5724 5722 5720 5717 5714 5711 5709 5707 5704 5702 5701 5699 5697 5695 5694 5693 5692 5691 5691 5691 5691
5696 5689 5705 5715 5720 5715 5710 5698 5682 5673 5662 5659 5672 5683 5693 5715 5722 5725 5726 5726 5727 5727 5725 5724 5722 5720 5717 5715 5711 5709 5706 5704 5702 5700 5698 5697 5695 5694 5693 5691 5690 5690 5690 5690
5694 5683 5690 5700 5699 5697 5697 5692 5682 5670 5669 5658 5659 5678 5712 5716 5722 5722 5724 5726 5726 5725 5724 5723 5721 5719 5716 5713 5710 5707 5704 5702 5700 5698 5697 5695 5693 5692 5691 5690 5689 5689 5688 5688
5684 5674 5671 5685 5700 5705 5700 5691 5680 5669 5664 5662 5660 5677 5720 5720 5722 5723 5724 5725 5725 5724 5723 5721 5719 5716 5713 5710 5708 5705 5703 5701 5699 5698 5695 5693 5692 5690 5688 5687 5687 5688 5687 5687
5679 5667 5659 5667 5677 5688 5689 5688 5683 5674 5663 5654 5656 5679 5715 5717 5719 5720 5720 5720 5720 5720 5719 5717 5715 5712 5710 5708 5706 5703 5702 5700 5698 5696 5693 5691 5689 5688 5687 5686 5686 5686 5686 5685
5679 5661 5657 5656 5663 5673 5676 5680 5680 5673 5659 5656 5665 5682 5702 5708 5711 5714 5715 5715 5715 5715 5715 5713 5710 5709 5708 5706 5704 5702 5700 5698 5696 5693 5691 5689 5687 5686 5686 5685 5685 5684 5684 5683
5668 5656 5659 5663 5671 5672 5674 5675 5675 5672 5670 5665 5675 5680 5694 5702 5706 5709 5711 5712 5711 5710 5710 5709 5707 5706 5705 5703 5701 5700 5698 5696 5694 5691 5689 5688 5687 5685 5684 5683 5683 5683 5682 5682
5655 5651 5653 5655 5664 5665 5665 5671 5672 5672 5673 5673 5677 5681 5698 5702 5703 5704 5705 5706 5706 5706 5707 5707 5705 5704 5702 5701 5700 5698 5696 5694 5692 5690 5688 5687 5685 5683 5682 5681 5681 5680 5680 5679
5640 5641 5637 5637 5649 5653 5652 5669 5670 5672 5676 5676 5673 5685 5693 5695 5697 5699 5701 5702 5702 5703 5704 5703 5703 5702 5702 5701 5699 5697 5695 5693 5690 5688 5686 5685 5683 5681 5680 5680 5678 5677 5677 5676
5634 5630 5625 5625 5635 5631 5661 5678 5678 5674 5677 5679 5682 5687 5689 5692 5695 5698 5700 5699 5699 5700 5700 5701 5701 5700 5700 5699 5697 5695 5693 5690 5688 5686 5684 5683 5681 5680 5678 5676 5675 5675 5674 5673
5633 5627 5617 5615 5619 5632 5655 5669 5670 5667 5668 5677 5678 5682 5685 5688 5688 5689 5696 5697 5698 5698 5699 5699 5699 5698 5697 5695 5694 5691 5689 5687 5685 5683 5682 5681 5680 5678 5676 5674 5673 5673 5672 5670
5623 5623 5614 5610 5613 5620 5648 5668 5673 5666 5657 5674 5674 5675 5677 5677 5669 5679 5692 5693 5694 5695 5695 5695 5694 5693 5692 5692 5690 5687 5684 5683 5682 5682 5682 5680 5679 5677 5675 5673 5672 5671 5670 5668
5609 5607 5606 5605 5608 5624 5651 5662 5663 5644 5651 5670 5671 5670 5670 5670 5674 5683 5688 5688 5690 5691 5691 5691 5690 5688 5688 5687 5686 5683 5681 5680 5681 5681 5679 5677 5676 5675 5674 5672 5670 5668 5666 5664
5606 5602 5601 5602 5603 5620 5651 5652 5647 5650 5660 5664 5665 5665 5665 5668 5673 5677 5680 5682 5684 5684 5685 5686 5684 5683 5683 5682 5681 5679 5678 5680 5678 5677 5675 5674 5673 5672 5671 5668 5666 5664 5662 5660
5605 5610 5610 5613 5621 5636 5642 5646 5650 5652 5652 5656 5657 5661 5662 5663 5665 5669 5673 5675 5677 5679 5679 5680 5679 5678 5678 5677 5677 5675 5676 5676 5674 5672 5671 5670 5669 5667 5666 5664 5661 5659 5658 5656
5601 5607 5606 5608 5621 5629 5634 5639 5642 5645 5647 5650 5653 5656 5657 5658 5661 5663 5666 5668 5670 5673 5673 5673 5673 5672 5672 5672 5672 5672 5672 5671 5670 5667 5666 5665 5664 5662 5661 5660 5658 5655 5654 5653
5597 5598 5598 5603 5613 5620 5627 5631 5635 5638 5640 5643 5647 5651 5652 5654 5656 5658 5660 5663 5665 5666 5667 5668 5668 5667 5667 5667 5667 5667 5667 5667 5664 5662 5661 5660 5659 5658 5656 5655 5653 5652 5652 5653
5590 5593 5593 5600 5610 5610 5618 5626 5628 5629 5633 5636 5639 5643 5647 5649 5651 5653 5656 5658 5660 5660 5662 5662 5662 5662 5662 5662 5662 5662 5662 5661 5659 5657 5655 5654 5653 5652 5651 5649 5646 5646 5647 5647